Hourly Data Report for September 03, 2017

All times are specified in Local Standard Time (LST). Add 1 hour to adjust for Daylight Saving Time where and when it is observed.

PANGNIRTUNG
NUNAVUT

66°08'36.300" N
65°42'40.500" W
22.60 m
2403049
71826
WXP

Download Data

Hourly Data (September 2017)
Hourly Data Report for September 3, 2017
Temp Definition
°C
Dew Point Temp Definition
°C
Rel Hum Definition
%
Wind Dir Definition
10's deg

Wind Spd Definition
km/h
Visibility Definition
km
Stn Press Definition
kPa
Hmdx Definition


Wind Chill Definition


Weather Definition


TIME
00:00 4.1 1.9 86 10 2   100.40     LegendNANA
01:00 4.0 1.6 85 7 7   100.38     LegendNANA
02:00 5.6 1.3 74 7 11   100.43     LegendNANA
03:00 4.2 0.5 77 10 12   100.42     LegendNANA
04:00 5.2 0.7 73 11 14   100.44     LegendNANA
05:00 5.8 1.0 71 9 14   100.45     LegendNANA
06:00 5.2 1.0 74 1 3   100.44     LegendNANA
07:00 6.1 0.7 69 4 11   100.48     LegendNANA
08:00 6.1 1.4 72 5 12   100.47     LegendNANA
09:00 7.1 2.2 71 6 8   100.47     LegendNANA
10:00 7.6 1.2 64 8 14   100.43     LegendNANA
11:00 7.4 1.9 68 1 6   100.41     LegendNANA
12:00 7.4 2.5 71 25 4   100.38     LegendNANA
13:00 7.7 2.9 71 27 3   100.38     LegendNANA
14:00 8.0 2.2 67 14 12   100.36     LegendNANA
15:00 6.8 2.5 74 23 9   100.35     LegendNANA
16:00 6.5 2.8 77 23 14   100.36     LegendNANA
17:00 7.4 1.8 67 17 7   100.37     LegendNANA
18:00 6.6 1.9 72 12 13   100.35     LegendNANA
19:00 6.1 1.5 72 11 22   100.36     LegendNANA
20:00 6.0 1.3 72 12 17   100.35     LegendNANA
21:00 5.7 1.2 73 13 17   100.36     LegendNANA
22:00 5.6 1.0 72 13 13   100.35     LegendNANA
23:00 5.2 1.2 75 12 11   100.33     LegendNANA

Notes on Data Quality.

Legend

  • E = Estimated
  • M = Missing
  • NA = Not Available
  • ‡ = Partner data that is not subject to review by the National Climate Archives
Date modified: